Regional Weather Roundup
Issued by NWS

Home | Current Version | Previous Version | Text Only | Print | Product List | Glossary Off
Versions: 1 2 3 4 5 6 7 8 9 10 11 12 13 14 15 16 17 18 19 20 21 22 23 24 25 26 27 28 29 30 31 32 33 34 35 36 37 38 39 40 41 42 43 44 45 46 47 48 49 50

000
ASUS43 KLSX 221010
RWRMO

WEATHER SUMMARY FOR MISSOURI
NATIONAL WEATHER SERVICE SPRINGFIELD MO
500 AM CDT MON MAY 22 2017

NOTE: "FAIR" INDICATES FEW OR NO CLOUDS BELOW 12,000 FEET WITH NO
       SIGNIFICANT WEATHER AND/OR OBSTRUCTIONS TO VISIBILITY.
       CURRENT SKY AND/OR WEATHER CONDITIONS ARE NOT AVAILABLE FOR
       CHILLICOTHE AND FARMINGTON.

MOZ001>031-035>038-043-044-053-054-221100-
...NORTHERN AND WESTERN MISSOURI...

CITY           SKY/WX    TMP DP  RH WIND       PRES   REMARKS
KANSAS CTY INT CLEAR     50  46  86 S9        30.06F
KANSAS C DTWN  CLEAR     56  46  69 CALM      30.07F
LEE`S SUMMIT   PTCLDY    56  47  71 S8        30.09F
ST JOSEPH      CLEAR     50  49  96 S5        30.06F
CHILLICOTHE      N/A     47  45  93 S3        30.09S
KIRKSVILLE     CLEAR     48  44  86 S7        30.08F

$$
MOZ066>068-077>081-088>096-101>105-221100-
...SOUTHWEST MISSOURI...

CITY           SKY/WX    TMP DP  RH WIND       PRES   REMARKS
SPRINGFIELD    CLOUDY    52  49  89 S3        30.13R
JOPLIN         CLOUDY    53  52  96 SE3       30.12F
BRANSON        CLOUDY    54  48  82 CALM      30.16S

$$
MOZ032>034-039>042-045>050-055>058-069>072-221100-
...CENTRAL MISSOURI...

CITY           SKY/WX    TMP DP  RH WIND       PRES   REMARKS
COLUMBIA       CLEAR     51  47  86 S3        30.11F
JEFFERSON CITY CLEAR     50  46  86 CALM      30.12F
ROLLA          CLOUDY    47  45  93 S3        30.11F
SEDALIA        PTCLDY    50  48  93 S6        30.11F
WHITEMAN AFB   MOCLDY    50  50 100 S6        30.09F
WARRENSBURG    CLOUDY    50  46  87 SE5       30.10F
OSAGE BEACH    PTCLDY    46  45  96 E3        30.12F

$$
MOZ051-052-059>065-221100-
...EAST CENTRAL MISSOURI...

CITY           SKY/WX    TMP DP  RH WIND       PRES   REMARKS
ST LOUIS INTL  CLOUDY    54  48  80 CALM      30.12F
SPIRIT OF STL  CLOUDY    48  48 100 CALM      30.12S
ST CHARLES     CLOUDY    51  50  96 CALM      30.11F

$$
MOZ072>076-082>087-097>100-106>115-221100-
...SOUTH CENTRAL AND SOUTHEAST MISSOURI...

CITY           SKY/WX    TMP DP  RH WIND       PRES   REMARKS
CAPE GIRARDEAU PTCLDY    55  50  83 S3        30.12S
FARMINGTON     CLOUDY    47  46  97 CALM      30.14S
POPLAR BLUFF   CLOUDY    55  51  86 CALM      30.14R
WEST PLAINS    CLOUDY    49  47  93 CALM      30.16R

$$



USA.gov is the U.S. government's official web portal to all federal, state and local government web resources and services.